Simultaneous Nadir Overpasses (SNOs) Predictions

Prediction of SNOs between METOP-B and NOAA-19 Satellite Orbit:

Table of predicted SNOs for the next 14.0 days since TLE Epoch: 12/19/2020
Index Date (METOP-B) Time (METOP-B) Lat,Lon (METOP-B) SZA (METOP-B ) Date (NOAA-19) Time (NOAA-19) Lat,Lon (NOAA-19) SZA (NOAA-19 ) Distance(km) Time Diff (sec)
1 12/26/2020 19:05:58 80.32, -80.68 104.49 12/26/2020 19:04:50 80.33, -80.61 104.48 1.53 68
2 12/26/2020 19:56:39 -80.31, 86.57 75.53 12/26/2020 19:55:49 -80.32, 86.70 75.53 2.81 50
3 12/26/2020 20:47:19 80.33,-105.82 104.51 12/26/2020 20:46:50 80.32,-105.96 104.48 3.24 29
4 12/26/2020 21:38:00 -80.33, 61.43 75.51 12/26/2020 21:37:49 -80.31, 61.35 75.53 2.12 11
5 12/26/2020 22:28:41 80.32,-131.28 104.49 12/26/2020 22:28:50 80.31,-131.30 104.48 2.00 9
6 12/26/2020 23:19:22 -80.32, 35.97 75.53 12/26/2020 23:19:49 -80.30, 36.00 75.53 1.63 27
7 12/27/2020 00:10:03 80.32,-156.74 104.47 12/27/2020 00:10:50 80.30,-156.64 104.47 2.56 47



Historial Predications of SNOs between METOP-B and NOAA-19
